Weather in Lug

Russia / Kursk Oblast     51°16′49″N   36°38′56″E
temp.,
°C
wind,
m/s
gust,
m/s
humid.,
%
clouds,
%
prec.,
mm/h
press.,
hPa
HPBL,
m
29 july, thu
thu2900:00+17sw227918 0.0 101212
03:00+16nw22820 0.0 101212
06:00+17wsw22874 0.0 101131
09:00+24wnw12605 0.0 1011417
12:00+29w33425 0.0 10101815
15:00+31wnw343536 0.0 10092403
18:00+30nw343455 0.0 10081754
21:00+23se3456100 0.0 100854
30 july, fri
fri3000:00+22s346068 0.0 100867
03:00+20sw36711 0.0 100794
06:00+19sw35854 0.3 1007100
09:00+25w336371 0.3 1008533
12:00+30wsw454691 0.0 10071593
15:00+31wnw664297 0.0 10072345
18:00+28nnw67481 0.0 10061415
21:00+23n5963100 0.0 1008344
31 july, sat
sat3100:00+22wnw226799 0.1 100943
03:00+19nw34760 0.1 100944
06:00+18nw34710 0.0 101078
09:00+25nw23470 0.0 1010522
12:00+29wnw34340 0.0 10102115
15:00+30wnw453113 0.0 10102677
18:00+30wnw45339 0.0 10092472
21:00+23n125591 0.0 101111
1 august, sun
sun100:00+21se125975 0.0 101211
03:00+20se22635 0.0 101211
06:00+20s33650 0.0 101345
09:00+28s45420 0.0 1012543
12:00+31s55310 0.0 10122679
15:00+33s55260 0.0 10102836
18:00+32sse45298 0.0 10101780
21:00+26sse48507 0.0 1010170
2 august, mon
mon200:00+23s48582 0.0 1010122
03:00+21ssw33550 0.0 101028
06:00+21s35610 0.0 101092
09:00+29ssw464225 0.0 1009548
12:00+33sw6728100 0.0 10082760
15:00+35sw472492 0.0 10073411
18:00+30s364187 0.3 1006398
21:00+22sse4776100 1.0 1007114